| time (UTC) | temp C | wind direction | speed KPH | gust KPH | rain 1hr cm | rain 24hr cm | rain mn cm | humidity % | barometer mb |
| 20260510214444 | 16 | 213 | 9.7 | 16.1 | 0.00 | 0.20 | 0.20 | 52 | 1011.4 |
| 20260510213941 | 16 | 226 | 9.7 | 12.9 | 0.00 | 0.20 | 0.20 | 54 | 1011.7 |
| 20260510213438 | 16 | 249 | 12.9 | 14.5 | 0.00 | 0.20 | 0.20 | 57 | 1011.7 |
| 20260510212934 | 16 | 233 | 8.0 | 9.7 | 0.00 | 0.20 | 0.20 | 58 | 1011.4 |
| 20260510212432 | 16 | 187 | 6.4 | 11.3 | 0.00 | 0.20 | 0.20 | 59 | 1011.4 |
| 20260510211928 | 16 | 196 | 6.4 | 9.7 | 0.00 | 0.20 | 0.20 | 57 | 1011.4 |
| 20260510211426 | 16 | 209 | 4.8 | 6.4 | 0.00 | 0.20 | 0.20 | 55 | 1011.4 |
| 20260510210925 | 16 | 265 | 14.5 | 16.1 | 0.00 | 0.20 | 0.20 | 55 | 1011.4 |
| 20260510210421 | 16 | 196 | 11.3 | 16.1 | 0.00 | 0.20 | 0.20 | 54 | 1011.7 |
| 20260510205920 | 15 | 258 | 6.4 | 6.4 | 0.00 | 0.20 | 0.20 | 55 | 1011.4 |
| 20260510205415 | 15 | 213 | 9.7 | 11.3 | 0.00 | 0.20 | 0.20 | 57 | 1011.4 |
| 20260510204912 | 16 | 236 | 9.7 | 12.9 | 0.00 | 0.20 | 0.20 | 55 | 1011.4 |
| 20260510204408 | 16 | 196 | 14.5 | 17.7 | 0.00 | 0.20 | 0.20 | 57 | 1011.4 |
| 20260510203904 | 16 | 248 | 6.4 | 12.9 | 0.00 | 0.20 | 0.20 | 60 | 1011.4 |
| 20260510203402 | 15 | 255 | 4.8 | 4.8 | 0.00 | 0.20 | 0.20 | 59 | 1011.4 |
| 20260510202856 | 15 | 245 | 8.0 | 9.7 | 0.00 | 0.20 | 0.20 | 62 | 1010.9 |
| 20260510202353 | 15 | 201 | 6.4 | 6.4 | 0.00 | 0.20 | 0.20 | 61 | 1010.9 |
| 20260510201849 | 15 | 260 | 12.9 | 16.1 | 0.00 | 0.20 | 0.20 | 61 | 1011.4 |
| 20260510201347 | 15 | 167 | 17.7 | 22.5 | 0.00 | 0.20 | 0.20 | 63 | 1011.4 |
| 20260510200843 | 15 | 250 | 11.3 | 12.9 | 0.00 | 0.20 | 0.20 | 63 | 1011.4 |
| 20260510200342 | 15 | 213 | 9.7 | 11.3 | 0.00 | 0.20 | 0.20 | 67 | 1011.4 |
| 20260510195837 | 15 | 186 | 17.7 | 20.9 | 0.00 | 0.20 | 0.20 | 66 | 1011.4 |
| 20260510195334 | 15 | 224 | 14.5 | 17.7 | 0.00 | 0.20 | 0.20 | 68 | 1011.4 |
| 20260510194829 | 15 | 208 | 8.0 | 11.3 | 0.00 | 0.20 | 0.20 | 69 | 1011.7 |
| 20260510194325 | 15 | 224 | 12.9 | 14.5 | 0.00 | 0.20 | 0.20 | 68 | 1011.4 |
| 20260510193821 | 15 | 214 | 17.7 | 22.5 | 0.00 | 0.20 | 0.20 | 68 | 1011.7 |
| 20260510193316 | 15 | 251 | 11.3 | 14.5 | 0.00 | 0.20 | 0.20 | 68 | 1011.7 |
| 20260510192812 | 14 | 223 | 8.0 | 20.9 | 0.00 | 0.20 | 0.20 | 70 | 1011.7 |
| 20260510192307 | 14 | 217 | 14.5 | 17.7 | 0.00 | 0.20 | 0.20 | 70 | 1011.7 |
| 20260510191804 | 15 | 230 | 12.9 | 17.7 | 0.00 | 0.20 | 0.20 | 70 | 1011.7 |
| 20260510191300 | 14 | 218 | 14.5 | 16.1 | 0.00 | 0.20 | 0.20 | 70 | 1011.7 |
| 20260510190758 | 15 | 234 | 6.4 | 12.9 | 0.00 | 0.20 | 0.20 | 70 | 1011.7 |
| 20260510190255 | 15 | 206 | 12.9 | 22.5 | 0.00 | 0.20 | 0.20 | 74 | 1011.4 |
| 20260510185751 | 14 | 232 | 6.4 | 6.4 | 0.00 | 0.20 | 0.20 | 73 | 1011.7 |
| 20260510185249 | 14 | 217 | 14.5 | 17.7 | 0.00 | 0.20 | 0.20 | 73 | 1011.7 |
| 20260510184746 | 14 | 231 | 22.5 | 27.4 | 0.00 | 0.20 | 0.20 | 74 | 1011.7 |
| 20260510184243 | 13 | 219 | 6.4 | 9.7 | 0.00 | 0.20 | 0.20 | 78 | 1011.7 |
| 20260510183737 | 13 | 167 | 9.7 | 11.3 | 0.00 | 0.20 | 0.20 | 78 | 1011.7 |
| 20260510183232 | 13 | 212 | 12.9 | 14.5 | 0.00 | 0.20 | 0.20 | 79 | 1011.7 |
| 20260510182729 | 13 | 195 | 6.4 | 9.7 | 0.00 | 0.20 | 0.20 | 80 | 1011.7 |
| 20260510182225 | 13 | 227 | 8.0 | 11.3 | 0.00 | 0.20 | 0.20 | 80 | 1011.7 |
| 20260510181722 | 13 | 201 | 6.4 | 9.7 | 0.00 | 0.20 | 0.20 | 80 | 1012.0 |
| 20260510181219 | 12 | 236 | 9.7 | 14.5 | 0.00 | 0.20 | 0.20 | 80 | 1011.7 |
| 20260510180715 | 13 | 253 | 8.0 | 9.7 | 0.00 | 0.20 | 0.20 | 81 | 1011.7 |
| 20260510180213 | 13 | 214 | 6.4 | 11.3 | 0.00 | 0.20 | 0.20 | 81 | 1011.7 |
| 20260510175708 | 13 | 228 | 12.9 | 20.9 | 0.00 | 0.20 | 0.20 | 81 | 1011.7 |
| 20260510175204 | 13 | 185 | 4.8 | 6.4 | 0.00 | 0.20 | 0.20 | 81 | 1011.7 |
| 20260510174702 | 12 | 207 | 11.3 | 14.5 | 0.00 | 0.20 | 0.20 | 81 | 1011.7 |
| 20260510174159 | 12 | 213 | 6.4 | 11.3 | 0.00 | 0.20 | 0.20 | 82 | 1011.7 |
| 20260510173655 | 12 | 279 | 9.7 | 11.3 | 0.00 | 0.20 | 0.20 | 83 | 1011.7 |
| 20260510173151 | 12 | 214 | 14.5 | 17.7 | 0.00 | 0.20 | 0.20 | 83 | 1011.7 |
| 20260510172646 | 12 | 226 | 9.7 | 11.3 | 0.00 | 0.20 | 0.20 | 82 | 1011.7 |
| 20260510172143 | 12 | 215 | 9.7 | 9.7 | 0.00 | 0.20 | 0.20 | 83 | 1011.4 |
| 20260510171640 | 13 | 175 | 4.8 | 4.8 | 0.00 | 0.20 | 0.20 | 87 | 1011.7 |
| 20260510171137 | 13 | 198 | 4.8 | 4.8 | 0.00 | 0.20 | 0.20 | 87 | 1011.7 |
| 20260510170633 | 12 | 161 | 3.2 | 4.8 | 0.00 | 0.20 | 0.20 | 87 | 1011.7 |
| 20260510170130 | 12 | 205 | 6.4 | 6.4 | 0.00 | 0.20 | 0.20 | 86 | 1011.7 |
| 20260510165626 | 13 | 170 | 3.2 | 3.2 | 0.00 | 0.20 | 0.20 | 88 | 1011.7 |
| 20260510165122 | 12 | 172 | 1.6 | 1.6 | 0.00 | 0.20 | 0.20 | 91 | 1011.7 |
| 20260510164620 | 11 | 201 | 1.6 | 1.6 | 0.00 | 0.20 | 0.20 | 92 | 1011.7 |
| 20260510164116 | 11 | 190 | 1.6 | 1.6 | 0.00 | 0.20 | 0.20 | 92 | 1011.7 |
| 20260510163611 | 11 | 185 | 3.2 | 3.2 | 0.00 | 0.20 | 0.20 | 92 | 1011.7 |
| 20260510163108 | 11 | 185 | 4.8 | 6.4 | 0.00 | 0.20 | 0.20 | 92 | 1011.7 |
| 20260510162602 | 11 | 188 | 1.6 | 3.2 | 0.13 | 0.20 | 0.20 | 93 | 1011.7 |
| 20260510162059 | 10 | 222 | 1.6 | 3.2 | 0.30 | 0.20 | 0.20 | 93 | 1011.7 |
| 20260510161555 | 11 | 162 | 0.0 | 0.0 | 0.18 | 0.18 | 0.18 | 94 | 1011.7 |
| 20260510161052 | 11 | 173 | 0.0 | 0.0 | 0.00 | 0.15 | 0.15 | 94 | 1011.7 |
| 20260510160549 | 11 | 245 | 1.6 | 3.2 | 0.13 | 0.15 | 0.15 | 94 | 1011.7 |
| 20260510160048 | 11 | 161 | 1.6 | 1.6 | 0.00 | 0.13 | 0.13 | 95 | 1011.4 |
| 20260510155545 | 11 | 139 | 0.0 | 0.0 | 0.00 | 0.13 | 0.13 | 94 | 1011.4 |
| 20260510155042 | 11 | 170 | 0.0 | 0.0 | 0.18 | 0.13 | 0.13 | 95 | 1011.4 |
| 20260510154537 | 11 | 171 | 0.0 | 0.0 | 0.00 | 0.10 | 0.10 | 94 | 1011.7 |
| 20260510154033 | 11 | 173 | 0.0 | 1.6 | 0.00 | 0.10 | 0.10 | 94 | 1011.4 |
| 20260510153528 | 11 | 153 | 1.6 | 3.2 | 0.13 | 0.10 | 0.10 | 94 | 1011.4 |
| 20260510153025 | 11 | 135 | 1.6 | 3.2 | 0.13 | 0.10 | 0.10 | 94 | 1011.4 |
| 20260510152522 | 11 | 119 | 1.6 | 4.8 | 0.18 | 0.08 | 0.08 | 94 | 1011.4 |
| 20260510152018 | 11 | 173 | 4.8 | 4.8 | 0.00 | 0.05 | 0.05 | 94 | 1011.7 |
| 20260510151515 | 11 | 210 | 3.2 | 3.2 | 0.18 | 0.05 | 0.05 | 93 | 1011.7 |
| 20260510151013 | 11 | 194 | 6.4 | 6.4 | 0.30 | 0.05 | 0.05 | 93 | 1011.4 |
| 20260510150507 | 11 | 240 | 4.8 | 6.4 | 0.00 | 0.00 | 0.00 | 91 | 1011.7 |
| 20260510150004 | 11 | 239 | 4.8 | 4.8 | 0.00 | 0.00 | 0.00 | 90 | 1011.4 |
| 20260510145501 | 11 | 231 | 6.4 | 6.4 | 0.00 | 0.00 | 0.00 | 89 | 1010.9 |
| 20260510144956 | 11 | 184 | 1.6 | 1.6 | 0.00 | 0.00 | 0.00 | 90 | 1010.3 |
| 20260510144454 | 11 | 187 | 4.8 | 6.4 | 0.00 | 0.00 | 0.00 | 89 | 1010.6 |
| 20260510143949 | 11 | 169 | 6.4 | 6.4 | 0.00 | 0.00 | 0.00 | 89 | 1010.6 |
| 20260510143445 | 11 | 98 | 6.4 | 6.4 | 0.00 | 0.00 | 0.00 | 89 | 1010.6 |
| 20260510142942 | 11 | 143 | 6.4 | 9.7 | 0.00 | 0.00 | 0.00 | 89 | 1010.6 |
| 20260510142439 | 12 | 201 | 6.4 | 6.4 | 0.00 | 0.00 | 0.00 | 88 | 1010.6 |
| 20260510141935 | 12 | 169 | 3.2 | 4.8 | 0.00 | 0.00 | 0.00 | 87 | 1010.6 |
| 20260510141432 | 12 | 144 | 8.0 | 9.7 | 0.00 | 0.00 | 0.00 | 86 | 1010.9 |
| 20260510140929 | 12 | 197 | 6.4 | 6.4 | 0.00 | 0.00 | 0.00 | 86 | 1010.6 |
| 20260510140426 | 13 | 189 | 6.4 | 11.3 | 0.00 | 0.00 | 0.00 | 85 | 1010.6 |
| 20260510135924 | 12 | 160 | 6.4 | 9.7 | 0.00 | 0.00 | 0.00 | 86 | 1010.9 |
| 20260510135415 | 12 | 142 | 12.9 | 14.5 | 0.00 | 0.00 | 0.00 | 87 | 1010.9 |
| 20260510134913 | 12 | 195 | 3.2 | 6.4 | 0.00 | 0.00 | 0.00 | 90 | 1010.9 |
| 20260510134409 | 12 | 165 | 4.8 | 6.4 | 0.00 | 0.00 | 0.00 | 89 | 1010.6 |
| 20260510133905 | 11 | 155 | 3.2 | 4.8 | 0.00 | 0.00 | 0.00 | 90 | 1010.9 |
| 20260510133402 | 11 | 178 | 4.8 | 4.8 | 0.00 | 0.00 | 0.00 | 91 | 1010.9 |
| 20260510132857 | 11 | 171 | 1.6 | 3.2 | 0.00 | 0.00 | 0.00 | 92 | 1010.9 |
| 20260510132355 | 11 | 177 | 1.6 | 3.2 | 0.00 | 0.00 | 0.00 | 92 | 1010.9 |
| 20260510131852 | 11 | 188 | 1.6 | 3.2 | 0.00 | 0.00 | 0.00 | 91 | 1010.9 |
| 20260510131350 | 11 | 188 | 11.3 | 16.1 | 0.00 | 0.00 | 0.00 | 91 | 1010.9 |
| 20260510130846 | 11 | 180 | 0.0 | 1.6 | 0.00 | 0.00 | 0.00 | 92 | 1010.6 |
| 20260510130343 | 11 | 138 | 6.4 | 6.4 | 0.00 | 0.00 | 0.00 | 92 | 1010.6 |
| 20260510125840 | 11 | 162 | 3.2 | 4.8 | 0.00 | 0.00 | 0.00 | 92 | 1010.6 |
| 20260510125336 | 10 | 161 | 6.4 | 6.4 | 0.00 | 0.00 | 0.00 | 93 | 1010.6 |
| 20260510124834 | 10 | 200 | 6.4 | 9.7 | 0.00 | 0.00 | 0.00 | 94 | 1010.6 |
| 20260510124330 | 10 | 191 | 8.0 | 9.7 | 0.00 | 0.00 | 0.00 | 95 | 1010.6 |
| 20260510123826 | 10 | 192 | 9.7 | 12.9 | 0.00 | 0.00 | 0.00 | 95 | 1010.9 |
| 20260510123321 | 9 | 188 | 11.3 | 12.9 | 0.00 | 0.00 | 0.00 | 96 | 1010.9 |
| 20260510122818 | 9 | 156 | 8.0 | 12.9 | 0.00 | 0.00 | 0.00 | 97 | 1010.9 |
| 20260510122314 | 10 | 183 | 8.0 | 11.3 | 0.00 | 0.00 | 0.00 | 97 | 1010.6 |
| 20260510121810 | 10 | 206 | 6.4 | 6.4 | 0.00 | 0.00 | 0.00 | 97 | 1011.4 |
| 20260510121308 | 9 | 219 | 12.9 | 14.5 | 0.00 | 0.00 | 0.00 | 97 | 1010.9 |
| 20260510120805 | 9 | 204 | 8.0 | 9.7 | 0.00 | 0.00 | 0.00 | 97 | 1010.6 |
| 20260510120301 | 9 | 171 | 11.3 | 12.9 | 0.00 | 0.00 | 0.00 | 97 | 1010.9 |
| 20260510115757 | 9 | 265 | 4.8 | 6.4 | 0.00 | 0.00 | 0.00 | 98 | 1010.9 |
| 20260510115255 | 9 | 180 | 6.4 | 11.3 | 0.00 | 0.00 | 0.00 | 98 | 1010.9 |
| 20260510114756 | 9 | 186 | 11.3 | 12.9 | 0.00 | 0.00 | 0.00 | 98 | 1010.6 |
| 20260510114253 | 9 | 212 | 8.0 | 12.9 | 0.00 | 0.00 | 0.00 | 98 | 1010.6 |
| 20260510113748 | 9 | 181 | 6.4 | 6.4 | 0.00 | 0.00 | 0.00 | 98 | 1010.6 |
| 20260510113246 | 9 | 210 | 4.8 | 4.8 | 0.00 | 0.00 | 0.00 | 99 | 1010.6 |
| 20260510112742 | 9 | 187 | 4.8 | 9.7 | 0.00 | 0.00 | 0.00 | 99 | 1010.3 |
| 20260510112238 | 8 | 204 | 4.8 | 6.4 | 0.00 | 0.00 | 0.00 | 99 | 1010.3 |
| 20260510111734 | 8 | 201 | 6.4 | 6.4 | 0.00 | 0.00 | 0.00 | 99 | 1010.3 |
| 20260510111232 | 8 | 193 | 3.2 | 3.2 | 0.00 | 0.00 | 0.00 | 99 | 1010.3 |
| 20260510110731 | 8 | 207 | 8.0 | 11.3 | 0.00 | 0.00 | 0.00 | 99 | 1010.6 |
| 20260510110229 | 8 | 213 | 6.4 | 6.4 | 0.00 | 0.00 | 0.00 | 99 | 1010.3 |
| 20260510105728 | 8 | 185 | 3.2 | 3.2 | 0.00 | 0.00 | 0.00 | 99 | 1010.3 |
| 20260510105224 | 8 | 180 | 6.4 | 6.4 | 0.00 | 0.00 | 0.00 | 99 | 1010.3 |
| 20260510104720 | 8 | 158 | 6.4 | 6.4 | 0.00 | 0.00 | 0.00 | 99 | 1010.3 |
| 20260510104218 | 8 | 142 | 1.6 | 1.6 | 0.00 | 0.00 | 0.00 | 99 | 1010.3 |
| 20260510103714 | 8 | 162 | 0.0 | 0.0 | 0.00 | 0.00 | 0.00 | 99 | 1010.3 |
| 20260510103211 | 8 | 166 | 0.0 | 0.0 | 0.00 | 0.00 | 0.00 | 99 | 1009.9 |
| 20260510102711 | 8 | 178 | 0.0 | 0.0 | 0.00 | 0.00 | 0.00 | 99 | 1009.9 |
| 20260510102207 | 8 | 167 | 0.0 | 0.0 | 0.00 | 0.00 | 0.00 | 99 | 1009.9 |
| 20260510101705 | 8 | 128 | 0.0 | 1.6 | 0.00 | 0.00 | 0.00 | 99 | 1009.6 |
| 20260510101203 | 8 | 199 | 3.2 | 3.2 | 0.00 | 0.00 | 0.00 | 99 | 1009.6 |
| 20260510100658 | 8 | 167 | 1.6 | 1.6 | 0.00 | 0.00 | 0.00 | 99 | 1009.6 |
| 20260510100156 | 8 | 170 | 0.0 | 1.6 | 0.00 | 0.00 | 0.00 | 99 | 1009.6 |
| 20260510095652 | 8 | 166 | 1.6 | 1.6 | 0.00 | 0.00 | 0.00 | 99 | 1009.6 |
| 20260510095147 | 8 | 217 | 3.2 | 3.2 | 0.00 | 0.00 | 0.00 | 99 | 1009.6 |
| 20260510094646 | 8 | 187 | 3.2 | 3.2 | 0.00 | 0.00 | 0.00 | 99 | 1009.2 |
| 20260510094142 | 8 | 188 | 1.6 | 1.6 | 0.00 | 0.00 | 0.00 | 99 | 1009.2 |
| 20260510093638 | 8 | 172 | 3.2 | 4.8 | 0.00 | 0.00 | 0.00 | 99 | 1009.2 |
| 20260510093135 | 7 | 237 | 6.4 | 9.7 | 0.00 | 0.00 | 0.00 | 99 | 1008.9 |
| 20260510092632 | 7 | 200 | 4.8 | 4.8 | 0.00 | 0.00 | 0.00 | 99 | 1008.9 |
| 20260510092127 | 7 | 163 | 3.2 | 4.8 | 0.00 | 0.00 | 0.00 | 99 | 1008.9 |
| 20260510091623 | 7 | 196 | 3.2 | 4.8 | 0.00 | 0.00 | 0.00 | 99 | 1008.9 |
| 20260510091120 | 7 | 234 | 3.2 | 3.2 | 0.00 | 0.00 | 0.00 | 99 | 1008.9 |
| 20260510090617 | 7 | 174 | 0.0 | 0.0 | 0.00 | 0.00 | 0.00 | 99 | 1008.6 |
| 20260510090113 | 7 | 172 | 0.0 | 1.6 | 0.00 | 0.00 | 0.00 | 99 | 1008.9 |
| 20260510085608 | 7 | 97 | 1.6 | 3.2 | 0.00 | 0.00 | 0.00 | 99 | 1008.9 |
| 20260510085104 | 7 | 234 | 3.2 | 3.2 | 0.00 | 0.00 | 0.00 | 99 | 1008.9 |
| 20260510084600 | 8 | 134 | 1.6 | 1.6 | 0.00 | 0.00 | 0.00 | 99 | 1008.9 |
| 20260510084057 | 8 | 176 | 3.2 | 3.2 | 0.00 | 0.00 | 0.00 | 99 | 1009.2 |
| 20260510083553 | 8 | 246 | 3.2 | 3.2 | 0.00 | 0.00 | 0.00 | 99 | 1008.9 |
| 20260510083050 | 8 | 184 | 1.6 | 3.2 | 0.00 | 0.00 | 0.00 | 99 | 1009.2 |
| 20260510082547 | 8 | 179 | 3.2 | 3.2 | 0.00 | 0.00 | 0.00 | 99 | 1009.6 |
| 20260510082042 | 8 | 231 | 4.8 | 6.4 | 0.00 | 0.00 | 0.00 | 99 | 1009.6 |
| 20260510081537 | 8 | 217 | 3.2 | 3.2 | 0.00 | 0.00 | 0.00 | 99 | 1009.9 |
| 20260510081033 | 8 | 204 | 6.4 | 6.4 | 0.00 | 0.00 | 0.00 | 99 | 1009.9 |
| 20260510080532 | 8 | 216 | 3.2 | 4.8 | 0.00 | 0.00 | 0.00 | 99 | 1009.6 |
| 20260510080030 | 8 | 195 | 4.8 | 4.8 | 0.00 | 0.00 | 0.00 | 99 | 1009.6 |
| 20260510075527 | 8 | 193 | 3.2 | 3.2 | 0.00 | 0.00 | 0.00 | 99 | 1009.6 |
| 20260510075024 | 8 | 222 | 3.2 | 4.8 | 0.00 | 0.00 | 0.00 | 99 | 1009.6 |
| 20260510074522 | 8 | 195 | 8.0 | 9.7 | 0.00 | 0.00 | 0.00 | 99 | 1009.6 |
| 20260510074016 | 8 | 184 | 1.6 | 3.2 | 0.00 | 0.00 | 0.00 | 99 | 1009.6 |
| 20260510073513 | 8 | 189 | 3.2 | 4.8 | 0.00 | 0.00 | 0.00 | 99 | 1009.2 |
| 20260510073010 | 8 | 183 | 4.8 | 4.8 | 0.00 | 0.00 | 0.00 | 99 | 1009.6 |
| 20260510072506 | 7 | 168 | 1.6 | 3.2 | 0.00 | 0.00 | 0.00 | 99 | 1009.2 |
| 20260510072002 | 7 | 188 | 6.4 | 6.4 | 0.00 | 0.00 | 0.00 | 99 | 1009.2 |
| 20260510071458 | 7 | 192 | 3.2 | 3.2 | 0.00 | 0.00 | 0.00 | 99 | 1009.6 |
| 20260510070956 | 6 | 175 | 1.6 | 1.6 | 0.00 | 0.00 | 0.00 | 99 | 1009.6 |
| 20260510070453 | 6 | 169 | 1.6 | 1.6 | 0.00 | 0.00 | 0.00 | 99 | 1009.2 |
| 20260510065949 | 7 | 178 | 3.2 | 3.2 | 0.00 | 0.00 | 0.00 | 99 | 1009.2 |
| 20260510065446 | 7 | 151 | 0.0 | 0.0 | 0.00 | 0.00 | 0.00 | 99 | 1009.2 |
| 20260510064942 | 7 | 159 | 0.0 | 0.0 | 0.00 | 0.00 | 0.00 | 99 | 1009.6 |
| 20260510064440 | 7 | 182 | 3.2 | 3.2 | 0.00 | 0.00 | 0.00 | 99 | 1009.6 |
| 20260510063936 | 7 | 159 | 0.0 | 0.0 | 0.00 | 0.00 | 0.00 | 99 | 1009.6 |
| 20260510063432 | 7 | 165 | 0.0 | 0.0 | 0.00 | 0.00 | 0.00 | 99 | 1009.6 |
| 20260510062931 | 7 | 171 | 0.0 | 0.0 | 0.00 | 0.00 | 0.00 | 99 | 1009.6 |
| 20260510062430 | 7 | 154 | 0.0 | 0.0 | 0.00 | 0.00 | 0.00 | 99 | 1009.6 |
| 20260510061926 | 7 | 154 | 0.0 | 0.0 | 0.00 | 0.00 | 0.00 | 99 | 1009.6 |
| 20260510061423 | 7 | 112 | 1.6 | 1.6 | 0.00 | 0.00 | 0.00 | 99 | 1009.6 |
| 20260510060919 | 7 | 146 | 0.0 | 0.0 | 0.00 | 0.00 | 0.00 | 99 | 1009.6 |
| 20260510060416 | 7 | 160 | 0.0 | 0.0 | 0.00 | 0.00 | 0.00 | 99 | 1009.9 |
| 20260510055913 | 7 | 166 | 0.0 | 0.0 | 0.00 | 0.00 | 0.00 | 99 | 1009.2 |
| 20260510055408 | 7 | 159 | 0.0 | 0.0 | 0.00 | 0.00 | 0.00 | 99 | 1009.9 |
| 20260510054906 | 7 | 177 | 0.0 | 0.0 | 0.00 | 0.00 | 0.00 | 99 | 1009.6 |
| 20260510054402 | 7 | 144 | 0.0 | 0.0 | 0.00 | 0.00 | 0.00 | 99 | 1009.6 |
| 20260510053857 | 7 | 153 | 0.0 | 0.0 | 0.00 | 0.00 | 0.00 | 99 | 1009.6 |
| 20260510053353 | 7 | 142 | 0.0 | 0.0 | 0.00 | 0.00 | 0.00 | 99 | 1009.6 |
| 20260510052849 | 7 | 133 | 1.6 | 1.6 | 0.00 | 0.00 | 0.00 | 99 | 1009.6 |
| 20260510052345 | 7 | 170 | 0.0 | 0.0 | 0.00 | 0.00 | 0.00 | 99 | 1009.9 |
| 20260510051841 | 7 | 172 | 0.0 | 1.6 | 0.00 | 0.00 | 0.00 | 99 | 1009.6 |
| 20260510051338 | 7 | 156 | 0.0 | 0.0 | 0.00 | 0.00 | 0.00 | 99 | 1009.6 |
| 20260510050835 | 7 | 164 | 0.0 | 0.0 | 0.00 | 0.00 | 0.00 | 99 | 1009.6 |
| 20260510050332 | 7 | 153 | 0.0 | 1.6 | 0.00 | 0.00 | 0.00 | 99 | 1009.9 |
| 20260510045829 | 7 | 153 | 0.0 | 0.0 | 0.00 | 0.00 | 0.00 | 99 | 1009.9 |
| 20260510045326 | 7 | 110 | 1.6 | 1.6 | 0.00 | 0.00 | 0.00 | 99 | 1009.6 |
| 20260510044823 | 7 | 150 | 0.0 | 0.0 | 0.00 | 0.00 | 0.00 | 99 | 1010.3 |
| 20260510044319 | 7 | 150 | 4.8 | 6.4 | 0.00 | 0.00 | 0.00 | 99 | 1009.9 |
| 20260510043816 | 7 | 173 | 0.0 | 0.0 | 0.00 | 0.00 | 0.00 | 99 | 1010.3 |
| 20260510043312 | 7 | 180 | 1.6 | 1.6 | 0.00 | 0.00 | 0.00 | 99 | 1009.9 |
| 20260510042810 | 7 | 160 | 1.6 | 1.6 | 0.00 | 0.00 | 0.00 | 99 | 1009.9 |
| 20260510042307 | 7 | 164 | 4.8 | 4.8 | 0.00 | 0.00 | 0.00 | 99 | 1009.9 |
| 20260510041802 | 7 | 153 | 3.2 | 4.8 | 0.00 | 0.00 | 0.00 | 99 | 1009.9 |
| 20260510041259 | 7 | 117 | 1.6 | 1.6 | 0.00 | 0.00 | 0.00 | 99 | 1009.6 |
| 20260510040757 | 7 | 122 | 0.0 | 0.0 | 0.00 | 0.00 | 0.00 | 99 | 1010.3 |
| 20260510040248 | 7 | 158 | 1.6 | 1.6 | 0.00 | 0.00 | 0.00 | 99 | 1010.3 |
| 20260510035743 | 7 | 141 | 3.2 | 4.8 | 0.00 | 0.30 | 0.30 | 99 | 1009.9 |
| 20260510035239 | 6 | 97 | 1.6 | 1.6 | 0.00 | 0.30 | 0.30 | 99 | 1009.9 |
| 20260510034735 | 6 | 175 | 0.0 | 0.0 | 0.00 | 0.30 | 0.30 | 99 | 1009.9 |
| 20260510034233 | 6 | 177 | 0.0 | 0.0 | 0.00 | 0.30 | 0.30 | 99 | 1009.9 |
| 20260510033729 | 6 | 171 | 0.0 | 0.0 | 0.00 | 0.30 | 0.30 | 99 | 1009.9 |
| 20260510033227 | 6 | 83 | 3.2 | 3.2 | 0.00 | 0.30 | 0.30 | 99 | 1009.9 |
| 20260510032723 | 6 | 166 | 0.0 | 0.0 | 0.00 | 0.30 | 0.30 | 99 | 1009.9 |
| 20260510032219 | 6 | 178 | 3.2 | 3.2 | 0.00 | 0.30 | 0.30 | 99 | 1009.9 |
| 20260510031714 | 6 | 167 | 0.0 | 0.0 | 0.00 | 0.30 | 0.30 | 99 | 1010.3 |
| 20260510031210 | 6 | 126 | 1.6 | 1.6 | 0.00 | 0.30 | 0.30 | 99 | 1009.9 |
| 20260510030709 | 6 | 156 | 0.0 | 1.6 | 0.00 | 0.30 | 0.30 | 99 | 1010.3 |
| 20260510030208 | 6 | 239 | 1.6 | 1.6 | 0.00 | 0.30 | 0.30 | 99 | 1009.9 |
| 20260510025705 | 6 | 175 | 1.6 | 1.6 | 0.00 | 0.30 | 0.30 | 99 | 1010.3 |
| 20260510025202 | 6 | 155 | 0.0 | 0.0 | 0.00 | 0.30 | 0.30 | 99 | 1010.3 |
| 20260510024659 | 6 | 169 | 0.0 | 0.0 | 0.00 | 0.30 | 0.30 | 99 | 1010.3 |
| 20260510024155 | 6 | 168 | 0.0 | 0.0 | 0.00 | 0.30 | 0.30 | 99 | 1010.3 |
| 20260510023651 | 6 | 155 | 0.0 | 0.0 | 0.00 | 0.30 | 0.30 | 99 | 1010.3 |
| 20260510023148 | 6 | 145 | 0.0 | 0.0 | 0.00 | 0.30 | 0.30 | 99 | 1010.3 |
| 20260510022643 | 6 | 167 | 3.2 | 3.2 | 0.00 | 0.30 | 0.30 | 99 | 1010.3 |
| 20260510022138 | 6 | 125 | 0.0 | 1.6 | 0.00 | 0.30 | 0.30 | 99 | 1010.3 |
| 20260510021634 | 6 | 148 | 0.0 | 0.0 | 0.00 | 0.30 | 0.30 | 99 | 1010.3 |
| 20260510021131 | 6 | 145 | 0.0 | 1.6 | 0.00 | 0.30 | 0.30 | 99 | 1010.3 |
| 20260510020626 | 6 | 160 | 0.0 | 0.0 | 0.00 | 0.30 | 0.30 | 99 | 1010.3 |
| 20260510020121 | 6 | 168 | 0.0 | 0.0 | 0.00 | 0.30 | 0.30 | 99 | 1010.6 |
| 20260510015618 | 6 | 171 | 0.0 | 0.0 | 0.00 | 0.30 | 0.30 | 99 | 1010.9 |
| 20260510015114 | 6 | 169 | 0.0 | 0.0 | 0.00 | 0.30 | 0.30 | 99 | 1010.6 |
| 20260510014610 | 6 | 163 | 0.0 | 0.0 | 0.00 | 0.30 | 0.30 | 99 | 1010.6 |
| 20260510014108 | 6 | 174 | 0.0 | 0.0 | 0.00 | 0.30 | 0.30 | 99 | 1010.6 |
| 20260510013602 | 6 | 163 | 0.0 | 0.0 | 0.00 | 0.30 | 0.30 | 99 | 1010.6 |
| 20260510013058 | 6 | 169 | 0.0 | 1.6 | 0.00 | 0.30 | 0.30 | 99 | 1010.9 |
| 20260510012557 | 6 | 168 | 0.0 | 0.0 | 0.00 | 0.30 | 0.30 | 99 | 1010.6 |
| 20260510012054 | 6 | 146 | 1.6 | 1.6 | 0.00 | 0.30 | 0.30 | 99 | 1010.3 |
| 20260510011553 | 6 | 167 | 0.0 | 0.0 | 0.00 | 0.30 | 0.30 | 99 | 1010.6 |
| 20260510011050 | 6 | 172 | 0.0 | 0.0 | 0.00 | 0.30 | 0.30 | 99 | 1010.6 |
| 20260510010546 | 6 | 187 | 0.0 | 1.6 | 0.00 | 0.30 | 0.30 | 99 | 1010.6 |
| 20260510010044 | 6 | 151 | 0.0 | 0.0 | 0.00 | 0.30 | 0.30 | 99 | 1010.6 |
| 20260510005539 | 6 | 211 | 3.2 | 3.2 | 0.00 | 0.30 | 0.30 | 99 | 1010.6 |
| 20260510005037 | 6 | 161 | 0.0 | 0.0 | 0.00 | 0.30 | 0.30 | 99 | 1010.3 |
| 20260510004534 | 6 | 160 | 0.0 | 0.0 | 0.00 | 0.30 | 0.30 | 99 | 1010.3 |
| 20260510004032 | 6 | 167 | 0.0 | 0.0 | 0.00 | 0.30 | 0.30 | 99 | 1010.3 |
| 20260510003529 | 6 | 167 | 0.0 | 0.0 | 0.00 | 0.30 | 0.30 | 99 | 1010.3 |
| 20260510003024 | 6 | 166 | 0.0 | 0.0 | 0.00 | 0.30 | 0.30 | 99 | 1010.3 |
| 20260510002520 | 6 | 162 | 0.0 | 0.0 | 0.00 | 0.30 | 0.30 | 99 | 1010.3 |
| 20260510002017 | 6 | 170 | 0.0 | 0.0 | 0.00 | 0.30 | 0.30 | 99 | 1010.3 |
| 20260510001514 | 6 | 155 | 0.0 | 0.0 | 0.00 | 0.30 | 0.30 | 98 | 1010.3 |
| 20260510001012 | 6 | 148 | 0.0 | 0.0 | 0.18 | 0.30 | 0.30 | 98 | 1009.9 |
| 20260510000512 | 6 | 161 | 0.0 | 0.0 | 0.18 | 0.30 | 0.30 | 98 | 1010.3 |
| 20260510000010 | 6 | 149 | 0.0 | 0.0 | 0.00 | 0.28 | 0.28 | 98 | 1009.9 |
| 20260509235507 | 6 | 153 | 0.0 | 0.0 | 0.00 | 0.28 | 0.28 | 98 | 1009.6 |
| 20260509235003 | 6 | 107 | 1.6 | 1.6 | 0.00 | 0.28 | 0.28 | 98 | 1009.9 |
| 20260509234459 | 6 | 145 | 0.0 | 0.0 | 0.00 | 0.28 | 0.28 | 98 | 1009.6 |
| 20260509233957 | 6 | 89 | 3.2 | 3.2 | 0.00 | 0.28 | 0.28 | 97 | 1009.9 |
| 20260509233454 | 6 | 171 | 0.0 | 0.0 | 0.00 | 0.28 | 0.28 | 97 | 1009.9 |
| 20260509232950 | 6 | 157 | 0.0 | 0.0 | 0.00 | 0.28 | 0.28 | 97 | 1009.9 |
| 20260509232448 | 6 | 145 | 1.6 | 3.2 | 0.00 | 0.28 | 0.28 | 97 | 1009.9 |
| 20260509231944 | 6 | 225 | 4.8 | 4.8 | 0.00 | 0.28 | 0.28 | 97 | 1009.6 |
| 20260509231441 | 6 | 168 | 0.0 | 0.0 | 0.00 | 0.28 | 0.28 | 97 | 1009.9 |
| 20260509230939 | 6 | 135 | 1.6 | 1.6 | 0.00 | 0.28 | 0.28 | 96 | 1009.9 |
| 20260509230435 | 6 | 143 | 1.6 | 1.6 | 0.00 | 0.28 | 0.28 | 96 | 1009.9 |
| 20260509225931 | 6 | 134 | 1.6 | 1.6 | 0.00 | 0.28 | 0.28 | 96 | 1009.6 |
| 20260509225428 | 6 | 176 | 6.4 | 6.4 | 0.00 | 0.28 | 0.28 | 96 | 1009.9 |
| 20260509224924 | 6 | 132 | 1.6 | 3.2 | 0.00 | 0.28 | 0.28 | 95 | 1009.9 |
| 20260509224420 | 7 | 175 | 3.2 | 3.2 | 0.00 | 0.28 | 0.28 | 95 | 1009.9 |
| 20260509223917 | 7 | 178 | 1.6 | 3.2 | 0.00 | 0.28 | 0.28 | 95 | 1009.6 |
| 20260509223414 | 7 | 215 | 3.2 | 3.2 | 0.13 | 0.28 | 0.28 | 94 | 1009.9 |
| 20260509222911 | 7 | 169 | 0.0 | 0.0 | 0.13 | 0.28 | 0.28 | 94 | 1009.9 |
| 20260509222406 | 7 | 168 | 1.6 | 1.6 | 0.00 | 0.25 | 0.25 | 94 | 1010.3 |
| 20260509221902 | 7 | 157 | 0.0 | 1.6 | 0.00 | 0.25 | 0.25 | 94 | 1010.3 |
| 20260509221359 | 7 | 168 | 9.7 | 12.9 | 0.00 | 0.25 | 0.25 | 94 | 1009.9 |
| 20260509220855 | 7 | 178 | 3.2 | 3.2 | 0.00 | 0.25 | 0.25 | 94 | 1009.9 |
| 20260509220351 | 7 | 195 | 6.4 | 6.4 | 0.00 | 0.25 | 0.25 | 94 | 1010.3 |
| 20260509215847 | 7 | 140 | 6.4 | 6.4 | 0.00 | 0.25 | 0.25 | 94 | 1010.3 |
| 20260509215343 | 7 | 192 | 4.8 | 4.8 | 0.00 | 0.25 | 0.25 | 94 | 1010.3 |
| 20260509214840 | 7 | 163 | 3.2 | 4.8 | 0.00 | 0.25 | 0.25 | 94 | 1010.3 |